EW9456 Weather Reports


time (UTC)temp
C
wind
direction
speed
KPH
gust
KPH
rain 1hr
cm
rain 24hr
cm
rain mn
cm
humidity
%
barometer
mb
20260506033417 18 14 0.0 0.0 0.00 0.66 0.33 45 1011.9
20260506032417 18 14 0.0 0.0 0.00 0.66 0.33 42 1011.7
20260506031413 18 14 0.0 0.0 0.00 0.66 0.33 41 1011.5
20260506024415 20 13 0.0 0.0 0.00 0.66 0.33 38 1011.2
20260506023413 20 15 0.0 0.0 0.00 0.66 0.33 38 1011.1
20260506022412 20 14 0.0 0.0 0.00 0.66 0.33 37 1011.0
20260506020413 20 13 0.0 0.0 0.00 0.66 0.33 34 1010.5
20260506014410 21 13 0.0 0.0 0.00 0.71 0.33 32 1010.4
20260506013410 21 13 0.0 0.0 0.00 0.71 0.33 32 1010.3
20260506012410 21 13 0.0 0.0 0.00 0.71 0.33 33 1010.2
20260506011410 22 15 0.0 0.0 0.00 0.71 0.33 32 1010.1
20260506010410 22 14 0.0 0.0 0.00 0.71 0.33 32 1010.0
20260506005412 22 13 0.0 0.0 0.00 0.71 0.33 32 1010.0
20260506004406 23 13 0.0 0.0 0.00 0.71 0.33 30 1009.9
20260506003404 23 15 0.0 0.0 0.00 0.71 0.33 29 1009.7
20260506002359 24 13 0.0 0.0 0.00 0.71 0.33 28 1009.6
20260506001359 23 13 0.0 0.0 0.00 0.71 0.33 30 1009.6
20260506000401 23 14 0.0 0.0 0.00 0.71 0.33 30 1009.6
20260505235359 23 13 0.0 0.0 0.00 0.71 0.33 30 1009.5
20260505234359 23 13 0.0 0.0 0.00 0.71 0.33 30 1009.3
20260505233359 23 13 0.0 0.0 0.00 0.71 0.33 30 1009.2
20260505232359 24 13 0.0 0.0 0.00 0.71 0.33 31 1009.1
20260505231356 24 15 0.0 0.0 0.00 0.71 0.33 31 1009.2
20260505230356 24 14 0.0 0.0 0.00 0.71 0.33 31 1009.2
20260505225354 24 12 0.0 0.0 0.00 0.71 0.33 29 1009.3
20260505223354 25 12 0.0 0.0 0.00 0.71 0.33 29 1009.6
20260505221355 25 13 0.0 0.0 0.00 0.71 0.33 31 1009.8
20260505215355 26 13 0.0 0.0 0.00 0.71 0.33 31 1010.0
20260505214354 26 178 0.0 0.0 0.00 0.71 0.33 31 1010.1
20260505213349 25 5 0.0 0.0 0.00 0.71 0.33 35 1010.2
20260505212349 25 12 0.0 0.0 0.00 0.71 0.33 35 1010.4
20260505211349 25 15 0.0 0.0 0.00 0.71 0.33 37 1010.4
20260505210349 25 12 0.0 0.0 0.00 0.71 0.33 32 1010.3
20260505204349 25 13 0.0 0.0 0.00 0.71 0.33 33 1010.5
20260505203349 25 13 0.0 0.0 0.00 0.71 0.33 34 1010.5
20260505202349 25 13 0.0 0.0 0.00 0.71 0.33 33 1010.5
20260505201353 25 12 0.0 0.0 0.00 0.71 0.33 36 1010.6
20260505200342 24 15 0.0 0.0 0.00 0.71 0.33 42 1010.9
20260505195343 23 13 0.0 0.0 0.00 0.71 0.33 46 1010.9
20260505194342 22 13 0.0 0.0 0.00 0.71 0.33 41 1011.1
20260505191342 21 13 0.0 0.0 0.00 0.71 0.33 53 1011.2
20260505190342 21 12 0.0 0.0 0.00 0.71 0.33 54 1011.4
20260505185342 21 12 0.0 0.0 0.00 0.71 0.33 53 1011.5
20260505184341 21 12 0.0 0.0 0.00 0.71 0.33 55 1011.5
20260505183336 21 11 0.0 0.0 0.00 0.71 0.33 55 1011.8
20260505182338 21 11 0.0 0.0 0.00 0.71 0.33 56 1011.8
20260505181336 20 12 0.0 0.0 0.00 0.71 0.33 60 1012.0
20260505180335 20 12 0.0 0.0 0.00 0.71 0.33 60 1012.0
20260505175336 19 12 0.0 0.0 0.00 0.71 0.33 62 1012.2
20260505174336 19 11 0.0 0.0 0.00 0.71 0.33 62 1012.3
20260505173336 18 13 0.0 0.0 0.00 0.71 0.33 64 1012.4
20260505172335 18 13 0.0 0.0 0.00 0.71 0.33 65 1012.3
20260505171336 18 13 0.0 0.0 0.00 0.71 0.33 67 1012.3
20260505170330 18 13 0.0 0.0 0.00 0.71 0.33 68 1012.3
20260505165330 18 212 0.0 0.0 0.00 0.71 0.33 69 1012.2
20260505164330 18 212 0.0 0.0 0.00 0.71 0.33 70 1012.3
20260505163332 17 213 0.0 0.0 0.00 0.71 0.33 71 1012.2
20260505161330 17 214 0.0 0.0 0.00 0.71 0.33 75 1012.4
20260505160329 17 209 0.0 0.0 0.00 0.71 0.33 76 1012.4
20260505153329 16 200 0.0 0.0 0.00 0.71 0.33 84 1012.0
20260505151329 16 182 0.0 0.0 0.00 0.71 0.33 86 1012.0
20260505140319 15 165 0.0 0.0 0.00 0.71 0.33 85 1011.7
20260505124320 14 180 0.0 0.0 0.03 0.71 0.33 84 1011.0
20260505123320 14 180 0.0 0.0 0.03 0.71 0.33 84 1010.7
20260505121319 14 180 0.0 0.0 0.00 0.69 0.30 84 1010.7
20260505120319 14 187 0.0 0.0 0.00 0.69 0.30 84 1010.5
20260505115319 14 193 0.0 0.0 0.00 0.69 0.30 85 1010.4
20260505113319 14 170 0.0 0.0 0.03 0.69 0.30 85 1010.5
20260505111319 14 167 0.0 0.0 0.05 0.69 0.30 87 1010.5
20260505110319 14 193 0.0 0.0 0.05 0.69 0.30 87 1010.6
20260505100315 14 127 0.0 0.0 0.03 0.64 0.25 86 1011.7
20260505095316 14 161 0.0 0.0 0.03 0.64 0.25 87 1011.6
20260505094315 15 150 0.0 0.0 0.00 0.61 0.23 87 1011.6
20260505092315 15 185 0.0 0.0 0.05 0.61 0.23 85 1011.9
20260505091315 15 175 0.0 0.0 0.05 0.61 0.23 85 1011.9
20260505090314 15 171 0.0 0.0 0.08 0.61 0.23 85 1011.7
20260505085310 15 186 0.0 0.0 0.10 0.61 0.23 86 1012.0
20260505084310 15 170 0.0 0.0 0.15 0.61 0.23 86 1012.2
20260505083307 15 140 0.0 0.0 0.15 0.58 0.20 86 1012.9
20260505082307 15 163 0.0 0.0 0.15 0.56 0.18 87 1013.4
20260505081307 15 156 0.0 0.0 0.15 0.56 0.18 86 1013.6
20260505080307 15 178 0.0 0.0 0.13 0.53 0.15 86 1014.0
20260505075307 15 151 0.0 0.0 0.13 0.51 0.13 86 1014.1
20260505074307 15 160 0.0 0.0 0.10 0.46 0.10 85 1014.2
20260505073306 15 163 0.0 0.0 0.10 0.43 0.05 85 1014.4
20260505072301 15 178 0.0 0.0 0.10 0.41 0.03 85 1014.3
20260505071301 15 173 0.0 0.0 0.13 0.41 0.03 85 1014.3
20260505070301 15 165 0.0 0.0 0.13 0.41 0.03 84 1014.2
20260505065303 15 165 0.0 0.0 0.10 0.38 0.38 84 1014.3
20260505064300 15 166 0.0 0.0 0.10 0.36 0.36 83 1014.1
20260505063301 15 159 0.0 0.0 0.10 0.33 0.33 83 1014.1
20260505062301 15 152 0.0 0.0 0.10 0.30 0.30 83 1014.2
20260505061300 15 150 0.0 0.0 0.08 0.28 0.28 82 1014.3
20260505060305 15 178 0.0 0.0 0.08 0.28 0.28 82 1014.3
20260505054259 15 176 0.0 0.0 0.10 0.25 0.25 82 1014.0
20260505053259 15 154 0.0 0.0 0.10 0.23 0.23 82 1014.0
20260505051259 15 208 0.0 0.0 0.10 0.20 0.20 81 1014.0
20260505050259 15 159 0.0 0.0 0.13 0.20 0.20 80 1013.8
20260505040256 17 222 0.0 0.0 0.03 0.08 0.08 67 1014.4
20260505034255 17 190 0.0 0.0 0.00 0.05 0.05 60 1013.8